User: anonymous   Login
Location: Unspecified
(0.0000°N, 0.0000°E)
Time: 17:44:04
(UTC+00:00)
Language:

PRATHAM - Orbit

View from above orbital plane
View from above orbital plane
View from above satellite
View from above satellite

Ground track
Ground track

The orbit data is extracted from the following two-line orbital elements,

1 41783U 16059A   25013.03311585  .00001282  00000-0  24106-3 0  9990
2 41783  97.8279  28.5514 0033374  74.9629 285.5265 14.65893269443275
Epoch (UTC): 13 January 2025 00:47:41
Eccentricity: 0.0033374
inclination: 97.8279°
perigee height: 650 km
apogee height: 698 km
right ascension of ascending node: 28.5514°
argument of perigee: 74.9629°
revolutions per day: 14.65893269
mean anomaly at epoch: 285.5265°
orbit number at epoch: 44327

The dashed part of the orbit path shows where the satellite is in the earth's shadow,  

DLR